Apalachia Observed Data For Previous 48 Hours

Caption
Day and Hour Reservoir Elevation (behind dam)* Tailwater Elevation (below dam)* Average Hourly Discharge*
12/10/2018 2 AM EST 1,277.14 840.56 3,109
12/10/2018 3 AM EST 1,276.76 840.56 3,113
12/10/2018 4 AM EST 1,276.76 840.50 3,109
12/10/2018 5 AM EST 1,276.51 840.49 3,112
12/10/2018 6 AM EST 1,276.60 840.47 3,113
12/10/2018 7 AM EST 1,276.96 840.43 3,108
12/10/2018 8 AM EST 1,277.07 840.45 3,114
12/10/2018 9 AM EST 1,277.11 840.42 3,109
12/10/2018 10 AM EST 1,277.26 840.41 3,115
12/10/2018 11 AM EST 1,277.42 840.39 3,110
12/10/2018 12 PM EST 1,277.51 840.37 3,115
12/10/2018 1 PM EST 1,277.61 840.36 3,112
12/10/2018 2 PM EST 1,277.49 840.36 3,117
12/10/2018 3 PM EST 1,277.23 840.33 3,110
12/10/2018 4 PM EST 1,276.78 840.34 5,376
12/10/2018 5 PM EST 1,276.67 840.32 5,356
12/10/2018 6 PM EST 1,276.88 840.32 5,361
12/10/2018 7 PM EST 1,277.15 840.30 5,373
12/10/2018 8 PM EST 1,277.29 840.30 5,389
12/10/2018 9 PM EST 1,277.52 841.32 5,394
12/10/2018 10 PM EST 1,277.66 841.60 5,408
12/10/2018 11 PM EST 1,277.67 841.59 5,409
12/11/2018 12 AM EST 1,277.70 841.59 5,414
12/11/2018 1 AM EST 1,277.64 841.58 5,414
12/11/2018 2 AM EST 1,277.54 841.59 5,403
12/11/2018 3 AM EST 1,277.43 841.58 5,403
12/11/2018 4 AM EST 1,277.35 841.57 5,390
12/11/2018 5 AM EST 1,277.26 841.58 5,391
12/11/2018 6 AM EST 1,277.20 841.54 5,381
12/11/2018 7 AM EST 1,277.20 841.58 5,383
12/11/2018 8 AM EST 1,277.20 841.54 5,379
12/11/2018 9 AM EST 1,277.67 841.54 5,401
12/11/2018 10 AM EST 1,277.85 841.54 5,414
12/11/2018 11 AM EST 1,278.06 841.52 5,430
12/11/2018 12 PM EST 1,277.91 841.54 5,427
12/11/2018 1 PM EST 1,277.86 841.53 5,425
12/11/2018 2 PM EST 1,277.86 841.54 5,419
12/11/2018 3 PM EST 1,277.66 841.55 5,419
12/11/2018 4 PM EST 1,277.55 841.55 5,405
12/11/2018 5 PM EST 1,277.48 841.51 5,404
12/11/2018 6 PM EST 1,277.42 841.52 5,400
12/11/2018 7 PM EST 1,277.36 841.50 5,392
12/11/2018 8 PM EST 1,277.26 841.51 5,393
12/11/2018 9 PM EST 1,277.25 841.50 5,387
12/11/2018 10 PM EST 1,277.14 841.51 5,382
12/11/2018 11 PM EST 1,277.09 841.47 5,378
12/12/2018 12 AM EST 1,277.02 841.51 5,376
12/12/2018 1 AM EST 1,276.95 841.50 5,367
12/12/2018 2 AM EST 1,276.84 841.48 5,367
12/12/2018 3 AM EST 1,276.77 841.50 5,355

Elevations are in feet above sea level. Discharges are in cubic feet per second and are reported at the end of the hour.